This demonstration page uses our WeatherBlox Daily Observations layout. Learn more.

Hourly Observations for January 7, 2019

Temp ( °F °C ) Dew Point ( °F °C ) Humidity (%) Winds ( mph kmh ) Pressure ( in mb ) Visibility ( mi km ) Precip ( " mm )
12:15 am 00:15 Clear 37 3 28 -2 70 70 Calm 30.39 1029 10 16.09344 0 0
12:35 am 00:35 Clear 37 3 28 -2 70 70 NNE 3 6 30.39 1029 10 16.09344 0 0
12:55 am 00:55 Clear 37 3 28 -2 70 70 NNE 3 6 30.39 1029 10 16.09344 0 0
1:15 am 01:15 Clear 34 1 28 -2 81 81 N 3 6 30.39 1029 10 16.09344 0 0
1:35 am 01:35 Clear 36 2 28 -2 75 75 Calm 30.42 1030 10 16.09344 0 0
1:55 am 01:55 Clear 36 2 28 -2 75 75 Calm 30.42 1030 10 16.09344 0 0
2:15 am 02:15 Clear 36 2 28 -2 75 75 N 5 7 30.42 1030 10 16.09344 0 0
2:35 am 02:35 Clear 34 1 28 -2 81 81 N 3 6 30.45 1031 10 16.09344 0 0
2:55 am 02:55 Clear 34 1 28 -2 81 81 N 3 6 30.45 1031 10 16.09344 0 0
3:15 am 03:15 Clear 32 0 28 -2 87 87 Calm 30.45 1031 10 16.09344 0 0
3:35 am 03:35 Clear 32 0 28 -2 87 87 Calm 30.45 1031 10 16.09344 0 0
3:55 am 03:55 Clear 34 1 28 -2 81 81 N 5 7 30.45 1031 10 16.09344 0 0
4:15 am 04:15 Clear 32 0 28 -2 87 87 N 5 7 30.45 1031 10 16.09344 0 0
4:35 am 04:35 Clear 36 2 28 -2 75 75 NNE 6 9 30.45 1031 10 16.09344 0 0
4:55 am 04:55 Clear 36 2 28 -2 75 75 N 5 7 30.45 1031 10 16.09344 0 0
5:15 am 05:15 Clear 36 2 28 -2 75 75 N 5 7 30.45 1031 10 16.09344 0 0
5:35 am 05:35 Clear 36 2 28 -2 75 75 NE 7 11 30.45 1031 10 16.09344 0 0
5:55 am 05:55 Clear 36 2 28 -2 75 75 NE 6 9 30.48 1032 10 16.09344 0 0
6:15 am 06:15 Clear 36 2 28 -2 75 75 NE 5 7 30.48 1032 10 16.09344 0 0
6:35 am 06:35 Partly Cloudy 36 2 28 -2 75 75 NE 6 9 30.48 1032 10 16.09344 0 0
6:55 am 06:55 Mostly Cloudy 34 1 28 -2 81 81 NE 6 9 30.48 1032 10 16.09344 0 0
7:15 am 07:15 Mostly Cloudy 34 1 28 -2 81 81 NE 7 11 30.5 1033 10 16.09344 0 0
7:35 am 07:35 Partly Cloudy 34 1 28 -2 81 81 NE 7 11 30.5 1033 10 16.09344 0 0
7:55 am 07:55 Mostly Cloudy 34 1 27 -3 75 75 NE 12 19 30.53 1034 10 16.09344 0 0
8:15 am 08:15 Mostly Cloudy 34 1 27 -3 75 75 NE 6 9 30.53 1034 10 16.09344 0 0
8:35 am 08:35 Cloudy 34 1 27 -3 75 75 Calm 30.53 1034 10 16.09344 0 0
8:55 am 08:55 Cloudy 34 1 27 -3 75 75 ENE 8 13 30.53 1034 10 16.09344 0 0
9:15 am 09:15 Partly Cloudy 34 1 25 -4 70 70 NE 7 11 30.53 1034 10 16.09344 0 0
9:35 am 09:35 Mostly Cloudy 36 2 27 -3 70 70 ENE 6 9 30.53 1034 10 16.09344 0 0
9:55 am 09:55 Cloudy 36 2 27 -3 70 70 ENE 9 15 30.53 1034 10 16.09344 0 0
10:15 am 10:15 Cloudy 36 2 27 -3 70 70 Calm 30.53 1034 10 16.09344 0 0
10:35 am 10:35 Cloudy 36 2 27 -3 70 70 ESE 5 7 30.53 1034 10 16.09344 0 0
10:55 am 10:55 Cloudy 36 2 23 -5 60 60 E 3 6 30.5 1033 10 16.09344 0 0
11:15 am 11:15 Mostly Cloudy 36 2 25 -4 65 65 E 5 7 30.5 1033 10 16.09344 0 0
11:35 am 11:35 Partly Cloudy 36 2 27 -3 70 70 E 5 7 30.48 1032 10 16.09344 0 0
11:55 am 11:55 Sunny 36 2 27 -3 70 70 Calm 30.48 1032 10 16.09344 0 0
12:15 pm 12:15 Sunny 36 2 25 -4 65 65 ESE 6 9 30.45 1031 10 16.09344 0 0
12:35 pm 12:35 Sunny 36 2 25 -4 65 65 E 3 6 30.45 1031 10 16.09344 0 0
12:55 pm 12:55 Sunny 36 2 25 -4 65 65 SE 3 6 30.45 1031 10 16.09344 0 0
1:15 pm 13:15 Sunny 37 3 27 -3 65 65 SE 3 6 30.42 1030 10 16.09344 0 0
1:35 pm 13:35 Sunny 37 3 27 -3 65 65 Calm 30.42 1030 10 16.09344 0 0
1:55 pm 13:55 Sunny 37 3 27 -3 65 65 SSE 8 13 30.42 1030 10 16.09344 0 0
2:15 pm 14:15 Sunny 37 3 27 -3 65 65 SSE 3 6 30.42 1030 10 16.09344 0 0
2:35 pm 14:35 Sunny 37 3 25 -4 60 60 SE 6 9 30.42 1030 10 16.09344 0 0
2:55 pm 14:55 Sunny 37 3 25 -4 60 60 SSE 7 11 30.42 1030 10 16.09344 0 0
3:15 pm 15:15 Sunny 37 3 25 -4 60 60 SE 6 9 30.42 1030 10 16.09344 0 0
3:35 pm 15:35 Sunny 37 3 27 -3 65 65 SSE 8 13 30.42 1030 10 16.09344 0 0
3:55 pm 15:55 Sunny 37 3 27 -3 65 65 SSE 9 15 30.39 1029 10 16.09344 0 0
4:15 pm 16:15 Sunny 37 3 27 -3 65 65 SSE 7 11 30.39 1029 10 16.09344 0 0
4:35 pm 16:35 Sunny 37 3 28 -2 70 70 SSE 9 15 30.39 1029 10 16.09344 0 0
4:55 pm 16:55 Sunny 37 3 28 -2 70 70 SSE 8 13 30.36 1028 10 16.09344 0 0
5:15 pm 17:15 Clear 37 3 28 -2 70 70 SSE 9 15 30.36 1028 10 16.09344 0 0
5:35 pm 17:35 Clear 37 3 28 -2 70 70 SE 7 11 30.36 1028 10 16.09344 0 0
5:55 pm 17:55 Clear 37 3 28 -2 70 70 SSE 7 11 30.36 1028 10 16.09344 0 0
6:15 pm 18:15 Clear 37 3 28 -2 70 70 SSE 12 19 30.36 1028 10 16.09344 0 0
6:35 pm 18:35 Clear 37 3 28 -2 70 70 SSE 8 13 30.36 1028 10 16.09344 0 0
6:55 pm 18:55 Clear 37 3 28 -2 70 70 SSE 8 13 30.36 1028 10 16.09344 0 0
7:15 pm 19:15 Clear 37 3 28 -2 70 70 SSE 9 15 30.36 1028 10 16.09344 0 0
7:35 pm 19:35 Clear 36 2 28 -2 75 75 SSE 8 13 30.33 1027 10 16.09344 0 0
7:55 pm 19:55 Clear 36 2 28 -2 75 75 SSE 9 15 30.33 1027 10 16.09344 0 0
8:15 pm 20:15 Clear 36 2 28 -2 75 75 SSE 13 20 30.3 1026 10 16.09344 0 0
8:35 pm 20:35 Clear 36 2 28 -2 75 75 SSE 10 17 30.3 1026 10 16.09344 0 0
8:55 pm 20:55 Clear 36 2 30 -1 81 81 SSE 6 9 30.33 1027 10 16.09344 0 0
9:15 pm 21:15 Clear 36 2 30 -1 81 81 SSE 8 13 30.3 1026 10 16.09344 0 0
9:35 pm 21:35 Clear 36 2 30 -1 81 81 S 9 15 30.3 1026 10 16.09344 0 0
9:55 pm 21:55 Clear 37 3 32 0 81 81 S 14 22 30.27 1025 10 16.09344 0 0
10:15 pm 22:15 Clear 37 3 32 0 81 81 S 13 20 30.27 1025 10 16.09344 0 0
10:35 pm 22:35 Clear 37 3 32 0 81 81 S 9 15 30.27 1025 10 16.09344 0 0
10:55 pm 22:55 Mostly Cloudy 37 3 32 0 81 81 SSE 16 26 30.24 1024 10 16.09344 0 0
11:15 pm 23:15 Cloudy with Light Drizzle 37 3 34 1 87 87 S 9 15 30.24 1024 10 16.09344 0 0
11:35 pm 23:35 Cloudy with Light Rain 37 3 34 1 87 87 S 9 15 30.24 1024 10 16.09344 0 0
11:55 pm 23:55 Cloudy with Light Rain 37 3 36 2 93 93 S 7 11 30.24 1024 10 16.09344 0 0

Powered by AerisWeather